Location: Enborne
(51.3833°N, 1.3667°W)
Time: 23:46:57
(UTC+00:00)

NOSS 2-2 (C) - Pass Details

Date: 18 January 2021
Orbit: 463 x 1745 km, 63.3° (Epoch: 03 March)

Event Time Altitude Azimuth Distance (km) Brightness Sun altitude
Rises 17:31:03 0° 285° (WNW) 2,578 7.7 -9.1°
Reaches altitude 10° 17:33:32 10° 305° (NW) 1,789 6.4 -9.5°
Maximum altitude 17:36:25 19° 352° (N) 1,435 5.3 -9.9°
Drops below altitude 10° 17:39:48 10° 39° (NE) 2,142 5.8 -10.4°
Enters shadow 17:39:56 10° 40° (NE) 2,182 5.8 -10.4°
